#timestamp,LO_Frequency,Hit,StdDev 
1568617215.8,286047002.1,N
1568617235.7,286047001.0,N
1568617255.5,286047000.0,N
1568617275.3,286047000.2,N
1568617295.2,286047000.1,N
1568617315.0,286047000.0,N
1568617315.9,286047000.0,N
1568617335.8,286046998.6,N
1568617355.6,286047000.4,N
1568617375.4,286047001.8,N
1568617395.3,286047002.6,N
1568617415.1,286047001.4,N
1568617435.8,286047002.4,N
1568617455.7,286046999.8,N
1568617475.5,286047002.2,N
1568617495.4,286047001.9,N
1568617515.2,286047001.9,N
1568617535.0,286047001.0,N
1568617535.9,286047001.0,N
1568617555.8,286046999.1,N
1568617575.6,286046996.5,N
1568617595.4,286046996.7,N
1568617615.3,286046998.0,N
1568617635.1,286046995.2,N
1568617655.9,286046996.1,N
1568617675.7,286046994.2,N
1568617695.5,286046992.1,Y
1568617715.4,286046991.9,P
1568617735.2,286046992.8,N
1568617755.0,286046992.3,N
1568617756.0,286046992.3,N
1568617775.8,286046991.4,N
1568617795.6,286046988.9,Y
1568617815.5,286046997.7,P
1568617835.3,286046997.8,N
1568617855.1,286046997.9,N
1568617875.9,286046996.0,N
1568617895.7,286046995.8,N
1568617915.6,286046995.6,N
1568617935.4,286046997.8,N
1568617955.2,286046995.4,Y
1568617975.1,286046996.2,P
1568617976.0,286046996.2,P
1568617995.8,286046998.0,P
1568618015.7,286046993.3,Y
1568618035.5,286046997.9,P
1568618055.3,286046995.0,P
1568618075.2,286046997.2,N
1568618095.0,286046997.0,N
1568618095.9,286046997.0,Y
1568618115.8,286047004.2,P
1568618135.6,286047001.8,N
1568618155.4,286046999.9,N
1568618175.3,286046996.5,N
1568618195.1,286046999.6,N
1568618215.8,286046997.6,N
1568618235.7,286046997.3,N
1568618255.5,286046994.9,N
1568618275.4,286046996.4,N
1568618295.2,286046995.8,N
1568618315.0,286046995.5,N
1568618315.9,286046995.5,N
1568618335.8,286046997.6,N
1568618355.6,286046998.9,N
1568618375.4,286047001.3,N
1568618395.3,286047001.4,N
1568618415.1,286047001.3,N
1568618435.9,286047005.3,N
1568618455.7,286047006.4,N
1568618475.5,286047008.0,N
1568618495.4,286047007.7,N
1568618515.2,286047009.9,N
1568618535.0,286047010.4,N
1568618535.9,286047010.4,N
1568618555.8,286047006.8,N
1568618575.6,286047004.5,N
1568618595.5,286047006.7,N
1568618615.3,286047006.6,N
1568618635.1,286047010.5,N
1568618655.9,286047011.8,N
1568618675.7,286047012.9,N
1568618695.5,286047015.0,N
1568618715.4,286047015.6,N
1568618735.2,286047015.6,N
1568618755.1,286047012.9,N
1568618756.0,286047012.9,N
1568618775.8,286047011.0,N
1568618795.6,286047011.8,N
1568618815.5,286047013.3,N
1568618835.3,286047015.1,N
1568618855.2,286047015.6,N
1568618875.9,286047013.2,N
1568618895.7,286047013.7,N
1568618915.6,286047012.9,N
1568618935.4,286047013.8,Y
1568618955.2,286047001.9,P
1568618975.1,286047001.3,N
1568618976.0,286047001.3,N
1568618995.8,286047003.2,N
1568619015.7,286047006.0,N
1568619035.5,286047005.3,N
1568619055.3,286047005.3,N
1568619075.2,286047003.6,N
1568619095.0,286047001.8,N
1568619095.9,286047001.8,N
1568619115.8,286046998.2,N
1568619135.6,286046998.6,N
1568619155.4,286046998.7,N
1568619175.3,286046999.1,N
1568619195.1,286046995.7,N
1568619215.8,286046996.4,N
1568619235.7,286046994.7,N
1568619255.5,286046994.0,N
1568619275.4,286046995.6,N
1568619295.2,286046996.1,N
1568619315.0,286046992.7,N
1568619315.9,286046992.7,N
1568619335.8,286046993.0,N
1568619355.6,286046991.8,N
1568619375.4,286046991.7,N
1568619395.3,286046993.3,N
1568619415.1,286046992.4,N
1568619435.9,286046991.1,N
1568619455.7,286046990.0,N
1568619475.5,286046986.6,N
1568619495.4,286046984.6,Y
1568619515.2,286046990.0,P
1568619535.0,286046989.3,P
1568619535.9,286046989.3,P
1568619555.8,286046991.3,N
1568619575.6,286046989.9,Y
1568619595.5,286046993.3,P
1568619615.3,286046992.9,P
1568619635.1,286046991.4,P
1568619655.9,286046989.8,Y
1568619675.7,286046993.6,P
1568619695.6,286046993.9,P
1568619715.4,286046993.3,P
1568619735.2,286046993.8,Y
1568619755.1,286047006.8,P
1568619756.0,286047006.8,N
1568619775.8,286047008.7,N
1568619795.6,286047006.1,N
1568619815.5,286047010.8,N
1568619835.3,286047008.4,N
1568619855.2,286047008.6,N
1568619875.9,286047007.2,N
1568619895.7,286047005.3,N
1568619915.6,286047006.0,N
1568619935.4,286047007.5,N
1568619955.2,286047006.2,N
1568619975.1,286047009.0,N
1568619976.0,286047009.0,N
1568619995.8,286047009.1,N
1568620015.7,286047010.0,N
1568620035.5,286047008.1,N
1568620055.3,286047006.7,N
1568620075.2,286047006.6,N
1568620095.0,286047005.1,N
1568620095.9,286047005.1,N
1568620115.7,286047003.7,N
1568620135.6,286047002.5,N
1568620155.4,286047000.0,N
1568620175.3,286046998.6,N
1568620195.1,286046998.8,N
1568620196.0,286046998.8,N
1568620215.8,286046997.1,N
1568620235.7,286046997.9,N
1568620255.5,286046995.0,N
1568620275.3,286046996.3,N
1568620295.2,286046994.8,N
1568620315.0,286046994.0,N
1568620315.9,286046994.0,N
1568620335.8,286046994.6,N
1568620355.6,286046993.6,N
1568620375.4,286046993.6,N
1568620395.3,286046994.4,N
1568620415.1,286046996.0,N
1568620435.9,286046997.3,N
1568620455.7,286046997.2,N
1568620475.5,286046996.7,N
1568620495.4,286046998.7,N
1568620515.2,286046998.1,N
1568620535.0,286046998.9,N
1568620535.9,286046998.9,N
1568620555.8,286047001.2,N
1568620575.6,286046999.2,N
1568620595.5,286046999.7,N
1568620615.3,286047003.2,N
1568620635.1,286047003.3,N
1568620655.9,286047003.4,N
1568620675.7,286047003.2,N
1568620695.6,286046999.8,N
1568620715.4,286047000.1,N
1568620735.2,286046999.9,N
1568620755.1,286047002.4,N
1568620756.0,286047002.4,N
1568620775.8,286046998.2,N
1568620795.7,286046998.5,N
